This is the latest recevied weather packets stored in our database for station/object VE8SKI. If no packets are shown the sender has not sent any weather packets the latest 1 day(s).
| Time | Temp. | Humidity | Pressure | Rain* | Wind** | Luminosity | Snow |
|---|---|---|---|---|---|---|---|
| 1778126617 | 6.11° C | 54% | 1011.4 hPa | 0 mm | 1.34 m/s, 127° | - | - |
| 1778126317 | 6.11° C | 54% | 1011.4 hPa | 0 mm | 0 m/s | - | - |
| 1778126015 | 6.11° C | 54% | 1011.3 hPa | 0 mm | 0 m/s | - | - |
| 1778125715 | 6.11° C | 54% | 1011.3 hPa | 0 mm | 0 m/s | - | - |
| 1778125416 | 6.11° C | 54% | 1011.3 hPa | 0 mm | 0 m/s | - | - |
| 1778125116 | 6.67° C | 54% | 1011.2 hPa | 0 mm | 0 m/s | - | - |
| 1778124817 | 6.67° C | 53% | 1011.2 hPa | 0 mm | 0.45 m/s, 97° | - | - |
| 1778124517 | 6.67° C | 53% | 1011.2 hPa | 0 mm | 0.89 m/s, 139° | - | - |
| 1778124215 | 6.67° C | 53% | 1011.2 hPa | 0 mm | 0.45 m/s, 118° | - | - |
| 1778123915 | 6.67° C | 53% | 1011.2 hPa | 0 mm | 0.45 m/s, 107° | - | - |
| 1778123616 | 6.67° C | 52% | 1011.1 hPa | 0 mm | 1.34 m/s, 97° | - | - |
| 1778123316 | 6.67° C | 52% | 1011.1 hPa | 0 mm | 0.89 m/s, 148° | - | - |
| 1778123017 | 6.67° C | 52% | 1011.1 hPa | 0 mm | 0.89 m/s, 113° | - | - |
| 1778122717 | 6.67° C | 52% | 1010.9 hPa | 0 mm | 0.89 m/s, 136° | - | - |
| 1778122415 | 6.67° C | 52% | 1010.9 hPa | 0 mm | 0 m/s | - | - |
| 1778122116 | 7.22° C | 52% | 1010.8 hPa | 0 mm | 0.45 m/s, 118° | - | - |
| 1778121816 | 7.22° C | 52% | 1010.8 hPa | 0 mm | 0.89 m/s, 93° | - | - |
| 1778121516 | 7.22° C | 52% | 1010.7 hPa | 0 mm | 0.45 m/s, 134° | - | - |
| 1778121217 | 6.67° C | 52% | 1010.7 hPa | 0 mm | 1.34 m/s, 103° | - | - |
| 1778120615 | 7.22° C | 51% | 1010.7 hPa | 0 mm | 0.89 m/s, 96° | - | - |
| 1778120316 | 7.22° C | 51% | 1010.7 hPa | 0 mm | 0.45 m/s, 98° | - | - |
| 1778119717 | 7.22° C | 51% | 1010.6 hPa | 0 mm | 0.45 m/s, 180° | - | - |
| 1778119118 | 7.78° C | 50% | 1010.6 hPa | 0 mm | 0.89 m/s, 156° | - | - |
| 1778118816 | 7.78° C | 49% | 1010.6 hPa | 0 mm | 0.45 m/s, 131° | - | - |
| 1778118217 | 7.78° C | 49% | 1010.6 hPa | 0 mm | 0.89 m/s, 131° | - | - |
* Rain latest hour (hover to see other rain measurements)
** Current wind speed in m/s (hover to see current wind gust speed)